• In Netherlands
  • List of Countries
  • For 7 days
  • Water Temperature
  • Satellite Maps
  • Weather Map
  • Weather Widgets
  • user-avatar
    Login

    Hourly Weather Abomey

    Today, 24 May, Wednesday

    Time Temperature Precipitation Wind Pressure Humidity
    00:00 +27°C° 0 mm 2 mps 739 mmHg 84%
    01:00 +27°C° 0 mm 2 mps 739 mmHg 85%
    02:00 +27°C° 0 mm 2 mps 738 mmHg 86%
    03:00 +27°C° 0 mm 2 mps 738 mmHg 87%
    04:00 +27°C° 0 mm 2 mps 738 mmHg 87%
    05:00 +26°C° 0 mm 2 mps 738 mmHg 88%
    06:00 +26°C° 0 mm 2 mps 738 mmHg 89%
    07:00 +28°C° 0 mm 2 mps 738 mmHg 79%
    08:00 +30°C° 0 mm 2 mps 739 mmHg 69%
    09:00 +33°C° 0 mm 3 mps 739 mmHg 59%
    10:00 +35°C° 0 mm 2 mps 739 mmHg 52%
    11:00 +37°C° 0 mm 2 mps 739 mmHg 45%
    12:00 +39°C° 0 mm 2 mps 739 mmHg 38%
    13:00 +38°C° 0 mm 2 mps 738 mmHg 39%
    14:00 +38°C° 0 mm 3 mps 738 mmHg 40%
    15:00 +38°C° 0 mm 3 mps 737 mmHg 41%
    16:00 +36°C° 0 mm 3 mps 737 mmHg 46%
    17:00 +35°C° 0 mm 3 mps 737 mmHg 52%
    18:00 +33°C° 0 mm 3 mps 738 mmHg 57%
    19:00 +31°C° 0.3 mm 3 mps 738 mmHg 65%
    20:00 +29°C° 0.3 mm 3 mps 738 mmHg 72%
    21:00 +28°C° 0.3 mm 3 mps 739 mmHg 80%
    22:00 +28°C° 0 mm 2 mps 739 mmHg 82%
    23:00 +27°C° 0 mm 2 mps 739 mmHg 83%

    Tomorrow, 25 May, Thursday

    Time Temperature Precipitation Wind Pressure Humidity
    00:00 +27°C° 0 mm 2 mps 739 mmHg 85%
    01:00 +27°C° 0 mm 2 mps 739 mmHg 86%
    02:00 +27°C° 0 mm 2 mps 738 mmHg 87%
    03:00 +27°C° 0 mm 3 mps 738 mmHg 87%
    04:00 +27°C° 0 mm 2 mps 738 mmHg 87%
    05:00 +27°C° 0 mm 2 mps 739 mmHg 87%
    06:00 +26°C° 0 mm 2 mps 739 mmHg 87%
    07:00 +28°C° 0 mm 2 mps 739 mmHg 77%
    08:00 +30°C° 0 mm 3 mps 740 mmHg 68%
    09:00 +33°C° 0 mm 3 mps 740 mmHg 58%
    10:00 +35°C° 0 mm 3 mps 740 mmHg 51%
    11:00 +37°C° 0 mm 2 mps 739 mmHg 44%
    12:00 +39°C° 0 mm 2 mps 739 mmHg 37%
    13:00 +37°C° 0.5 mm 2 mps 739 mmHg 44%
    14:00 +35°C° 0.5 mm 3 mps 738 mmHg 52%
    15:00 +34°C° 0.5 mm 3 mps 738 mmHg 59%
    16:00 +31°C° 1.4 mm 3 mps 738 mmHg 66%
    17:00 +30°C° 1.4 mm 3 mps 738 mmHg 74%
    18:00 +28°C° 1.4 mm 3 mps 738 mmHg 81%
    19:00 +28°C° 0.2 mm 2 mps 739 mmHg 82%
    20:00 +27°C° 0.2 mm 2 mps 740 mmHg 84%
    21:00 +27°C° 0.2 mm 2 mps 740 mmHg 85%
    22:00 +27°C° 0 mm 2 mps 740 mmHg 86%
    23:00 +26°C° 0 mm 2 mps 740 mmHg 87%

    Day after tomorrow, 26 May, Friday

    Time Temperature Precipitation Wind Pressure Humidity
    00:00 +26°C° 0 mm 2 mps 740 mmHg 88%
    01:00 +26°C° 0.1 mm 2 mps 740 mmHg 90%
    02:00 +26°C° 0.1 mm 2 mps 739 mmHg 91%
    03:00 +26°C° 0.1 mm 1 mps 739 mmHg 92%
    04:00 +25°C° 0.1 mm 1 mps 739 mmHg 93%
    05:00 +25°C° 0.1 mm 1 mps 739 mmHg 94%
    06:00 +25°C° 0.1 mm 1 mps 739 mmHg 94%
    07:00 +26°C° 0.2 mm 2 mps 740 mmHg 90%
    08:00 +27°C° 0.2 mm 2 mps 741 mmHg 86%
    09:00 +27°C° 0.2 mm 2 mps 741 mmHg 83%
    10:00 +27°C° 1.1 mm 2 mps 741 mmHg 84%
    11:00 +27°C° 1.1 mm 2 mps 741 mmHg 85%
    12:00 +27°C° 1.1 mm 2 mps 741 mmHg 86%
    13:00 +27°C° 0.6 mm 1 mps 740 mmHg 86%
    14:00 +28°C° 0.6 mm 1 mps 739 mmHg 85%
    15:00 +28°C° 0.6 mm 1 mps 739 mmHg 84%
    16:00 +27°C° 0.2 mm 1 mps 739 mmHg 87%
    17:00 +25°C° 0.2 mm 0 mps 739 mmHg 90%
    18:00 +24°C° 0.2 mm 0 mps 739 mmHg 93%
    19:00 +26°C° 0 mm 1 mps 740 mmHg 94%
    20:00 +26°C° 0 mm 1 mps 740 mmHg 94%
    21:00 +25°C° 0 mm 1 mps 741 mmHg 95%
    22:00 +25°C° 0 mm 1 mps 740 mmHg 95%
    23:00 +25°C° 0 mm 1 mps 740 mmHg 96%

    27 May, Saturday

    Time Temperature Precipitation Wind Pressure Humidity
    00:00 +25°C° 0 mm 1 mps 740 mmHg 96%
    01:00 +24°C° 0 mm 1 mps 740 mmHg 97%
    02:00 +24°C° 0 mm 1 mps 739 mmHg 97%
    03:00 +24°C° 0 mm 1 mps 739 mmHg 98%
    04:00 +24°C° 0 mm 1 mps 739 mmHg 97%
    05:00 +22°C° 0 mm 0 mps 740 mmHg 97%
    06:00 +22°C° 0 mm 0 mps 740 mmHg 96%
    07:00 +25°C° 0 mm 0 mps 741 mmHg 85%
    08:00 +27°C° 0 mm 0 mps 741 mmHg 73%
    09:00 +30°C° 0 mm 0 mps 742 mmHg 61%
    10:00 +32°C° 0 mm 0 mps 741 mmHg 54%
    11:00 +34°C° 0 mm 0 mps 741 mmHg 46%
    12:00 +39°C° 0 mm 1 mps 740 mmHg 38%
    13:00 +39°C° 0 mm 1 mps 740 mmHg 38%
    14:00 +35°C° 0 mm 0 mps 739 mmHg 38%
    15:00 +35°C° 0 mm 0 mps 738 mmHg 37%
    16:00 +35°C° 0 mm 1 mps 738 mmHg 46%
    17:00 +33°C° 0 mm 1 mps 738 mmHg 54%
    18:00 +31°C° 0 mm 2 mps 738 mmHg 62%
    19:00 +30°C° 0 mm 2 mps 739 mmHg 66%
    20:00 +29°C° 0 mm 2 mps 740 mmHg 70%
    21:00 +28°C° 0 mm 3 mps 740 mmHg 74%
    22:00 +28°C° 0 mm 2 mps 740 mmHg 77%
    23:00 +27°C° 0 mm 2 mps 740 mmHg 79%

    28 May, Sunday

    Time Temperature Precipitation Wind Pressure Humidity
    00:00 +27°C° 0 mm 2 mps 740 mmHg 82%
    01:00 +27°C° 0 mm 2 mps 739 mmHg 83%
    02:00 +27°C° 0 mm 2 mps 739 mmHg 84%
    03:00 +26°C° 0 mm 2 mps 739 mmHg 85%
    04:00 +26°C° 0 mm 2 mps 739 mmHg 85%
    05:00 +26°C° 0 mm 1 mps 740 mmHg 86%
    06:00 +26°C° 0 mm 1 mps 740 mmHg 86%
    07:00 +28°C° 0 mm 2 mps 741 mmHg 78%
    08:00 +30°C° 0 mm 2 mps 741 mmHg 69%
    09:00 +33°C° 0 mm 3 mps 741 mmHg 61%
    10:00 +34°C° 0.1 mm 2 mps 741 mmHg 55%
    11:00 +36°C° 0.1 mm 2 mps 740 mmHg 48%
    12:00 +37°C° 0.1 mm 1 mps 740 mmHg 42%
    13:00 +36°C° 0.3 mm 1 mps 739 mmHg 44%
    14:00 +36°C° 0.3 mm 1 mps 739 mmHg 46%
    15:00 +35°C° 0.3 mm 1 mps 738 mmHg 48%
    16:00 +34°C° 0.7 mm 2 mps 738 mmHg 58%
    17:00 +31°C° 0.7 mm 2 mps 739 mmHg 68%
    18:00 +29°C° 0.7 mm 2 mps 739 mmHg 77%
    19:00 +29°C° 0.1 mm 2 mps 740 mmHg 81%
    20:00 +28°C° 0.1 mm 2 mps 740 mmHg 84%
    21:00 +27°C° 0.1 mm 2 mps 741 mmHg 88%
    22:00 +27°C° 0 mm 2 mps 740 mmHg 88%
    23:00 +27°C° 0 mm 2 mps 740 mmHg 88%

    29 May, Monday

    Time Temperature Precipitation Wind Pressure Humidity
    00:00 +27°C° 0 mm 2 mps 740 mmHg 88%
    01:00 +26°C° 0 mm 2 mps 739 mmHg 88%
    02:00 +26°C° 0 mm 2 mps 739 mmHg 89%
    03:00 +26°C° 0 mm 2 mps 738 mmHg 89%
    04:00 +26°C° 0 mm 2 mps 739 mmHg 89%
    05:00 +26°C° 0 mm 2 mps 739 mmHg 88%
    06:00 +26°C° 0 mm 2 mps 740 mmHg 88%
    07:00 +28°C° 0 mm 3 mps 740 mmHg 80%
    08:00 +30°C° 0 mm 3 mps 741 mmHg 71%
    09:00 +32°C° 0 mm 4 mps 741 mmHg 63%
    10:00 +33°C° 0.3 mm 4 mps 741 mmHg 60%
    11:00 +34°C° 0.3 mm 3 mps 740 mmHg 57%
    12:00 +35°C° 0.3 mm 3 mps 740 mmHg 54%
    13:00 +35°C° 0.6 mm 3 mps 739 mmHg 56%
    14:00 +34°C° 0.6 mm 3 mps 739 mmHg 59%
    15:00 +34°C° 0.6 mm 3 mps 738 mmHg 61%
    16:00 +33°C° 0.5 mm 3 mps 738 mmHg 66%
    17:00 +31°C° 0.5 mm 3 mps 739 mmHg 71%
    18:00 +29°C° 0.5 mm 2 mps 739 mmHg 76%
    19:00 +29°C° 0.6 mm 2 mps 740 mmHg 80%
    20:00 +28°C° 0.6 mm 2 mps 740 mmHg 83%
    21:00 +27°C° 0.6 mm 2 mps 741 mmHg 87%
    22:00 +27°C° 0.1 mm 2 mps 740 mmHg 88%
    23:00 +27°C° 0.1 mm 2 mps 740 mmHg 89%
    Show more